Regional Weather Roundup
Issued by NWS

Home | Current Version | Previous Version | Text Only | Print | Product List | Glossary On
Versions: 1 2 3 4 5 6 7 8 9 10 11 12 13 14 15 16 17 18 19 20 21 22 23 24 25 26 27 28 29 30 31 32 33 34 35 36 37 38 39 40 41 42 43 44 45 46 47 48 49 50
000
ASUS46 KSEW 251410
RWRWA

WASHINGTON REGIONAL WEATHER ROUNDUP
NATIONAL WEATHER SERVICE SEATTLE WA
700 AM PDT FRI JUL 25 2014

NOTE:"FAIR" INDICATES FEW OR NO CLOUDS BELOW 12,000 FEET WITH NO
SIGNIFICANT WEATHER AND/OR OBSTRUCTIONS TO VISIBILITY.

WAZ505-507>509-251500-
SEATTLE, TACOMA, EVERETT, AND VICINITY

CITY           SKY/WX    TMP DP  RH WIND       PRES   REMARKS
EVERETT        CLOUDY    55  54  96 N3        30.18S
BOEING FIELD   MOSUNNY   59  52  77 CALM      30.17S
RENTON         SUNNY     56  54  93 CALM      30.17S
SEATAC AIRPORT MOSUNNY   55  52  89 CALM      30.18S
JBLM-MCCHORD   CLOUDY    51  51  99 CALM      30.18S
PUYALLUP       FAIR      48  48 100 CALM      30.18S
JBLM-FT LEWIS  CLOUDY    50  49  95 SE3       30.17S
TACOMA NARROWS SUNNY     54  51  90 CALM      30.17S
$$

WAZ001-503-506-510-514-515-251500-
NORTH INTERIOR

CITY           SKY/WX    TMP DP  RH WIND       PRES   REMARKS
BELLINGHAM     PTSUNNY   57  51  80 E5        30.16S
FRIDAY HARBOR  CLOUDY    52  52 100 CALM      30.17S
EASTSOUND      SUNNY     55  52  88 S8        30.14S
PORT ANGELES   MOSUNNY   55  51  86 CALM      30.16F
NAS WHIDBEY    PTSUNNY   56  53  90 E6        30.17F
BURLINGTON     CLOUDY    57  54  88 CALM      30.18F
$$

WAZ020-022-039-040-504-511-512-251500-
SOUTHWEST INTERIOR

CITY           SKY/WX    TMP DP  RH WIND       PRES   REMARKS
SHELTON        CLOUDY    57  52  83 N3        30.15S
OLYMPIA        CLOUDY    48  47  96 CALM      30.17S
CHEHALIS       CLOUDY    50  50 100 CALM      30.17S
KELSO          CLOUDY    52  46  82 N3        30.20S
VANCOUVER      MOSUNNY   54  50  86 CALM      30.15S
SCAPPOOSE, OR  SUNNY     57  51  80 NW6       30.15S
PORTLAND, OR   PTSUNNY   55  52  89 N3        30.16R
$$

WAZ021-516-517-251500-
WASHINGTON COAST

CITY           SKY/WX    TMP DP  RH WIND       PRES   REMARKS
FORKS          CLOUDY    56  54  93 CALM      30.16S
HOQUIAM        CLOUDY    55  54  96 E5        30.16F FOG
ASTORIA, OR    SUNNY     50  49  96 SE3       30.16S
$$

WAZ019-023-024-040-518-519-251500-
CASCADE MOUNTAINS AND COLUMBIA GORGE

CITY           SKY/WX    TMP DP  RH WIND       PRES   REMARKS
STAMPEDE PASS  NOT AVBL
TROUTDALE, OR  CLOUDY    56  53  90 W3        30.15R
THE DALLES, OR SUNNY     56  49  77 CALM      30.11S
$$

WAZ026-027-041>044-520-521-251500-
EAST SLOPES

CITY           SKY/WX    TMP DP  RH WIND       PRES   REMARKS
OMAK           SUNNY     53  40  61 N3        30.10R
WENATCHEE      SUNNY     60  43  53 NW5       30.09S
ELLENSBURG     SUNNY     58  45  62 NW14      30.10S
YAKIMA         SUNNY     51  42  71 W5        30.11R
$$

WAZ028-034-035-251500-
COLUMBIA BASIN

CITY           SKY/WX    TMP DP  RH WIND       PRES   REMARKS
EPHRATA        SUNNY     61  41  47 NW9       30.08R
MOSES LAKE     SUNNY     53  47  79 SE5       30.09R
PASCO          SUNNY     59  52  77 CALM      30.10R
HERMISTON, OR  SUNNY     57  48  72 S3        30.11R
$$

WAZ036>038-251500-
NORTHEAST WASHINGTON

CITY           SKY/WX    TMP DP  RH WIND       PRES   REMARKS
SPOKANE GEIGER MOSUNNY   52  43  71 S7        30.09R
SPOKANE FELTS  SUNNY     56  44  64 W3        30.10R
FAIRCHILD AFB  SUNNY     51  46  82 S13       30.10R
COEURDALENE,ID SUNNY     55  46  71 NW3       30.10R
DEER PARK      SUNNY     51  45  79 S7        30.10R
$$

WAZ029>033-251500-
SOUTHEAST WASHINGTON

CITY           SKY/WX    TMP DP  RH WIND       PRES   REMARKS
PULLMAN        SUNNY     52  47  83 CALM      30.14R
LEWISTON, ID   SUNNY     59  44  57 E3        30.11R
WALLA WALLA    SUNNY     60  48  64 S5        30.12R
PENDLETON, OR  SUNNY     52  45  77 SE6       30.12R
$$


USA.gov is the U.S. government's official web portal to all federal, state and local government web resources and services.